Regional Weather Roundup
Issued by NWS

Home | Current Version | Previous Version | Graphics & Text | Print | Product List | Glossary On
Versions: 1 2 3 4 5 6 7 8 9 10 11 12 13 14 15 16 17 18 19 20 21 22 23 24 25 26 27 28 29 30 31 32 33 34 35 36 37 38 39 40 41 42 43 44 45 46 47 48 49 50
000
ASUS45 KCYS 212110
RWRWY

WYOMING REGIONAL WEATHER ROUNDUP
NATIONAL WEATHER SERVICE CHEYENNE WY
300 PM MDT MON JUL 21 2014

NOTE:  "FAIR" INDICATES FEW OR NO CLOUDS BELOW 12,000 FEET
WITH NO SIGNIFICANT WEATHER AND/OR OBSTRUCTIONS TO VISIBILITY.

WYZ001-212200-
YELLOWSTONE NATIONAL PARK

CITY           SKY/WX    TMP DP  RH WIND       PRES   REMARKS
LK YELLOWSTONE   N/A     70  39  32 VRB7G23   30.29S
W YELLOWSTONE  NOT AVBL

$$
WYZ002>013-054>058-071-098>099-212200-
NORTHERN WYOMING

CITY           SKY/WX    TMP DP  RH WIND       PRES   REMARKS
JACKSON        NOT AVBL
CODY           PTSUNNY   88  45  22 NE3       30.01F
GREYBULL       PTSUNNY   93  43  17 N16G23    29.93F
WORLAND        MOSUNNY   94  41  16 NW9       29.92F HX  90
SHERIDAN       PTSUNNY   81  52  36 NW23G29   30.01R
BUFFALO        MOSUNNY   90  43  19 N10       30.01F
GILLETTE       MOSUNNY   90  45  21 NW12      29.96F
HULETT         FAIR      90  45  20 MISG      29.97
NEWCASTLE      FAIR      95  36  12 MISG      29.96  HX  90

$$
WYZ014>020-022>026-101>103-212200-
CENTRAL WYOMING

CITY           SKY/WX    TMP DP  RH WIND       PRES   REMARKS
BIG PINEY      MOSUNNY   79  38  22 W15       30.25F
PINEDALE       PTCLDY    79  34  19 SW14G30   30.25S
DUBOIS         FAIR      79  32  18 W23G38    30.21S
LANDER         MOSUNNY   86  36  16 SW17G23   30.08S
RIVERTON       PTSUNNY   91  34  13 W20G26    30.08R
CASPER         MOSUNNY   92  31  11 W21G38    30.06F
DOUGLAS        MOSUNNY   95  38  13 W23G35    30.05F HX  90

$$
WYZ021-027>030-104>119-212200-
SOUTHERN WYOMING

CITY           SKY/WX    TMP DP  RH WIND       PRES   REMARKS
EVANSTON       MOSUNNY   81  37  20 SW16G36   30.28F
KEMMERER       PTCLDY    81  32  17 SW21G29   30.30S
FORT BRIDGER   FAIR      84  33  16 W22G29    30.30S
ROCK SPRINGS   SUNNY     87  29  12 W15G25    30.23F
DIXON          FAIR      88  32  13 SW14G20   30.25F
RAWLINS        MOSUNNY   88  24  10 SW18G36   30.23S
SARATOGA       FAIR      88  30  12 W20G31    30.27S
LARAMIE        MOSUNNY   84  37  18 W15G22    30.27S
CHEYENNE       MOSUNNY   89  41  18 SW16G32   30.18F
TORRINGTON     MOSUNNY   98  43  15 W14G22    29.99F HX  94
PINE BLUFFS    FAIR      91  37  15 CALM      30.10F

$$



USA.gov is the U.S. government's official web portal to all federal, state and local government web resources and services.